Wind_Speed
80 79 75 72 71 70 68 69 67 65 64 64 63 64 64 61 55 52 51 47 47 48 42 39 34 24 22 16 18 20 16 9 16 22 22 25 30 22 21 14 16 14 14
79 77 74 72 69 65 63 60 60 59 60 61 61 59 58 55 51 49 47 47 47 42 37 32 23 20 18 17 18 19 13 9 21 22 24 25 29 25 27 23 20 17 14
61 67 70 70 67 64 61 58 57 54 56 53 53 55 54 50 47 46 45 45 41 34 29 23 21 19 16 16 14 16 10 13 22 24 27 22 20 23 22 21 16 10 10
34 45 55 60 62 61 59 57 55 53 49 49 52 51 48 45 44 43 44 40 33 28 24 22 15 15 16 14 12 9 5 16 24 25 21 16 20 19 18 11 11 7 8
20 24 34 42 48 49 49 49 50 49 49 52 47 43 43 42 40 43 40 34 27 24 20 19 18 16 15 13 12 10 8 11 24 25 27 29 26 18 18 18 13 8 9
9 7 13 23 32 37 40 42 47 48 48 42 38 40 39 38 40 36 31 27 24 19 18 18 20 20 18 14 14 7 10 13 21 27 30 26 21 21 21 17 14 13 10
16 7 10 18 24 29 35 39 40 39 37 34 35 35 35 37 33 27 20 11 11 18 23 21 16 15 12 14 13 12 12 17 21 26 26 26 22 19 18 21 21 17 15
15 13 15 17 18 21 25 26 29 30 31 32 32 33 33 30 25 12 8 10 13 14 13 12 13 14 11 15 16 16 17 20 22 19 29 29 25 21 20 22 21 22 23
16 17 19 20 17 19 22 23 25 28 28 29 30 29 27 22 12 10 9 8 5 3 2 5 8 11 17 20 21 20 21 22 26 21 22 31 29 28 23 16 14 10 17
20 19 21 21 18 19 20 23 24 26 27 28 27 24 21 11 8 8 5 2 1 2 2 1 9 14 14 15 16 17 20 21 22 22 17 17 17 12 9 10 13 17 18
21 20 21 14 16 19 20 21 24 25 25 24 22 20 13 8 5 4 4 0 4 4 3 6 9 6 0 6 12 16 16 21 18 20 18 14 13 16 20 22 21 20 22
24 23 16 16 20 18 18 21 22 20 19 16 16 12 11 11 6 4 5 4 8 6 8 12 16 18 15 17 24 26 21 17 17 17 20 20 23 24 25 26 22 15 18
28 19 20 20 17 15 16 19 18 12 14 14 12 17 14 11 6 8 5 10 14 12 16 19 22 27 30 31 30 29 26 25 23 22 25 29 28 24 23 18 16 19 18
27 23 20 18 15 13 14 15 13 12 12 14 20 18 14 6 8 14 16 16 20 24 26 28 29 30 31 31 31 31 30 28 28 29 28 23 18 17 17 18 18 17 16
18 17 17 15 12 11 10 10 7 10 13 20 22 18 13 12 19 22 23 25 26 26 26 26 28 28 29 30 29 30 28 27 25 22 20 17 14 13 12 11 10 9 7
15 15 13 9 8 11 7 9 10 10 16 25 23 17 12 17 24 24 23 23 22 20 18 19 20 21 21 22 22 20 18 17 14 11 8 4 3 7 11 15 16 16 16
13 10 6 6 9 8 9 8 13 11 16 28 26 18 17 21 21 19 18 20 23 14 17 11 12 10 9 11 13 10 10 10 9 8 8 7 4 6 10 15 17 17 14
8 6 5 4 7 10 10 11 14 14 16 23 28 23 19 17 18 18 15 19 16 11 16 12 11 5 3 2 3 2 2 5 5 7 10 15 16 15 12 11 14 15 17
7 6 4 2 5 6 9 12 16 15 16 20 24 27 23 19 16 18 18 14 17 16 14 13 11 8 3 6 7 4 7 11 16 18 20 20 24 18 14 16 18 20 21
6 5 5 2 2 4 5 9 14 16 17 19 21 26 22 22 18 18 18 15 13 18 17 15 17 13 13 12 14 17 18 15 19 22 21 21 19 17 15 16 18 21 25
11 9 7 4 4 3 4 2 11 16 18 20 21 21 23 22 22 25 22 21 18 16 14 14 14 16 18 19 21 23 23 25 26 26 24 21 21 17 15 17 20 22 23
16 11 11 8 6 1 2 4 0 10 19 21 19 24 23 22 22 24 24 24 22 23 20 22 24 27 26 23 23 25 25 25 27 26 24 23 22 22 22 24 26 29 29
23 13 4 3 4 6 3 2 7 3 11 18 18 18 19 26 23 23 25 29 28 26 24 26 26 28 29 29 30 32 32 34 35 32 30 28 28 29 29 30 34 34 31
25 17 11 10 9 6 5 1 6 7 3 9 13 15 19 23 27 29 29 28 28 29 31 32 33 32 32 31 31 33 33 33 33 32 30 31 34 34 36 38 35 30 29
25 24 19 14 10 7 5 2 2 3 6 4 1 8 14 13 16 22 24 25 27 27 28 30 31 31 31 34 36 38 39 41 41 40 38 37 37 36 35 33 31 30 30
27 23 22 20 17 13 10 9 7 5 3 2 3 1 3 9 14 17 19 21 21 21 21 23 24 24 24 24 24 25 25 25 25 26 26 27 29 30 30 28 26 26 27
Wind_Direction
254 257 259 261 262 264 268 271 275 279 284 289 289 290 290 292 297 295 297 295 296 297 294 291 291 288 288 289 316 323 310 265 204 199 192 200 211 212 216 219 219 238 254
254 257 258 258 260 263 266 270 275 278 282 283 286 286 289 294 295 295 293 295 297 293 288 282 277 274 288 311 316 322 324 212 190 191 199 200 211 219 223 238 248 240 252
252 253 255 256 258 261 263 267 272 278 281 283 283 287 293 293 293 291 294 297 295 289 278 271 271 295 298 308 310 318 337 188 184 190 202 202 217 225 230 244 237 226 269
253 252 251 252 253 257 261 266 270 275 279 279 286 290 290 291 290 292 296 296 290 278 270 273 276 289 292 301 297 308 303 194 190 194 201 203 227 221 214 227 241 246 283
250 252 247 246 249 252 257 262 266 270 275 285 286 288 287 288 291 294 294 290 276 271 266 271 278 288 285 280 269 278 244 218 203 193 211 191 211 219 229 239 247 270 287
254 236 250 242 247 248 253 258 265 273 279 280 283 284 286 289 291 294 287 279 271 267 264 269 275 280 275 261 261 264 230 217 214 207 215 222 221 239 234 238 254 266 270
269 256 287 251 249 252 258 263 269 269 274 278 279 282 287 290 294 286 275 263 276 266 266 274 281 265 258 256 256 255 259 216 212 220 222 226 225 239 256 260 261 265 265
250 306 299 290 271 263 262 259 261 269 273 276 281 287 285 284 283 283 281 287 280 277 275 270 272 283 276 265 265 258 250 220 206 218 225 228 237 249 252 260 264 262 256
263 289 292 282 272 262 255 262 263 272 275 277 282 282 276 276 268 286 300 288 292 288 277 263 279 283 283 278 265 252 230 214 204 204 217 224 244 255 264 253 249 206 187
253 268 282 280 256 257 260 263 273 274 277 279 277 265 269 256 254 289 258 225 45 48 95 353 312 301 285 262 240 223 206 202 200 202 206 227 244 202 185 175 167 160 165
254 266 270 263 263 257 262 275 277 280 277 272 260 250 247 209 230 259 202 87 59 116 131 11 11 9 83 184 171 162 160 173 185 202 225 195 154 144 139 141 145 147 146
244 266 261 254 254 262 280 285 283 275 263 246 237 229 194 175 184 195 175 86 136 114 93 81 70 72 95 117 130 126 132 150 165 166 158 146 138 138 144 137 131 138 151
244 247 251 249 255 279 291 293 285 252 230 228 197 166 165 171 188 193 149 119 126 112 116 97 85 83 91 101 110 114 120 123 127 133 134 136 133 128 139 151 151 148 152
240 236 240 246 262 282 294 290 267 221 197 175 165 165 166 154 140 140 129 125 122 120 110 102 95 89 87 91 99 103 107 111 116 126 129 133 141 142 140 144 150 152 163
214 224 233 241 260 284 294 254 224 186 177 167 158 164 160 145 133 128 123 126 122 116 114 110 105 100 96 93 93 96 97 99 104 113 118 122 129 143 156 168 183 196 213
206 214 214 228 276 284 251 229 208 177 167 160 159 167 158 153 146 141 141 139 132 121 120 118 104 103 106 106 105 100 96 93 87 85 88 109 225 229 216 217 225 229 237
213 201 210 234 271 273 263 217 219 188 169 165 162 165 156 161 155 154 157 150 152 141 139 131 127 107 115 107 121 107 92 79 58 47 33 21 333 278 260 256 255 252 257
191 196 227 259 283 275 260 226 203 187 179 176 178 174 168 165 166 168 169 172 173 157 164 170 165 163 176 165 219 147 45 355 348 352 342 340 327 321 287 276 265 262 263
220 198 209 303 308 290 257 228 210 193 186 188 184 184 184 182 187 184 185 190 194 191 188 195 207 197 233 257 270 262 306 321 326 318 323 324 331 323 284 267 267 271 277
211 214 205 246 319 340 273 216 207 205 191 198 196 195 202 203 201 207 201 198 215 213 223 232 238 224 230 253 264 278 285 296 310 317 311 319 321 309 282 280 282 285 287
186 204 219 236 253 313 6 229 198 205 195 197 204 201 206 211 211 214 214 214 214 217 232 245 241 236 248 252 261 281 294 294 294 300 301 301 302 293 276 279 284 288 284
205 234 226 218 241 232 45 45 278 195 187 191 204 205 205 211 217 213 220 229 234 237 237 242 249 251 264 269 271 274 278 283 289 292 293 290 283 278 272 274 279 286 283
230 209 191 202 254 245 230 125 45 45 199 199 209 217 224 221 223 225 229 232 238 237 236 239 246 253 259 266 271 275 279 284 291 295 294 285 282 277 277 281 289 289 285
217 208 191 200 219 231 263 329 55 67 89 210 211 212 210 214 222 225 233 239 240 246 252 257 260 268 271 274 278 280 282 282 286 284 282 285 285 282 283 287 289 283 282
215 218 215 202 211 206 225 221 96 69 77 70 260 245 233 239 246 254 258 260 262 263 266 268 269 272 274 275 278 279 278 280 280 281 280 280 281 282 285 286 284 283 281
222 211 220 218 222 221 234 223 210 225 233 266 299 279 230 242 253 258 261 265 267 270 272 273 273 277 276 279 281 282 284 286 287 287 286 286 285 284 284 282 283 284 281
Height
10664 10671 10679 10684 10685 10687 10689 10689 10689 10689 10689 10689 10688 10683 10677 10672 10667 10661 10657 10651 10648 10642 10638 10634 10631 10629 10626 10624 10620 10616 10613 10611 10611 10613 10620 10624 10627 10631 10636 10640 10643 10645 10647
10648 10655 10663 10667 10668 10672 10674 10676 10677 10679 10677 10679 10675 10670 10665 10661 10657 10651 10646 10642 10638 10633 10630 10627 10625 10624 10622 10620 10616 10614 10611 10608 10611 10615 10618 10623 10627 10632 10635 10638 10642 10644 10645
10631 10638 10645 10650 10656 10660 10664 10666 10668 10669 10668 10666 10661 10657 10655 10651 10646 10641 10638 10633 10627 10623 10621 10621 10621 10621 10618 10616 10614 10613 10611 10610 10613 10615 10617 10623 10627 10631 10635 10638 10640 10642 10643
10616 10622 10628 10635 10642 10647 10652 10655 10657 10658 10657 10653 10651 10649 10645 10640 10637 10633 10628 10624 10619 10616 10616 10616 10617 10616 10615 10613 10612 10613 10612 10612 10613 10615 10618 10622 10624 10629 10634 10636 10638 10640 10641
10611 10614 10619 10626 10632 10635 10640 10643 10646 10646 10645 10644 10641 10639 10636 10632 10628 10624 10619 10616 10613 10612 10611 10612 10611 10611 10610 10610 10610 10611 10611 10611 10613 10616 10616 10623 10624 10628 10632 10635 10637 10638 10639
10609 10609 10613 10618 10623 10626 10629 10633 10636 10636 10635 10634 10632 10630 10626 10623 10620 10616 10612 10610 10609 10608 10608 10607 10606 10605 10605 10606 10607 10607 10609 10610 10612 10614 10617 10620 10625 10628 10631 10633 10635 10637 10638
10609 10608 10610 10614 10616 10618 10622 10625 10627 10626 10627 10626 10624 10623 10619 10614 10612 10609 10608 10607 10605 10603 10602 10601 10601 10600 10601 10602 10603 10604 10606 10609 10610 10612 10615 10619 10622 10625 10628 10629 10631 10632 10634
10604 10604 10607 10608 10609 10611 10614 10616 10618 10619 10620 10618 10617 10614 10610 10608 10606 10604 10603 10601 10599 10597 10596 10597 10597 10594 10594 10596 10596 10598 10599 10603 10607 10610 10614 10617 10620 10622 10623 10625 10626 10627 10629
10599 10601 10603 10604 10604 10606 10608 10609 10611 10613 10612 10612 10609 10607 10605 10604 10602 10601 10599 10597 10595 10595 10594 10593 10593 10591 10588 10587 10588 10590 10593 10598 10603 10608 10612 10615 10618 10619 10620 10621 10622 10623 10625
10595 10599 10601 10600 10599 10601 10603 10605 10606 10606 10605 10604 10602 10600 10601 10599 10599 10598 10597 10596 10595 10594 10592 10591 10589 10586 10581 10579 10580 10584 10589 10595 10602 10607 10611 10614 10615 10616 10618 10620 10622 10624 10627
10592 10594 10596 10594 10596 10600 10600 10600 10600 10599 10596 10596 10595 10597 10597 10597 10598 10596 10596 10595 10595 10593 10593 10592 10588 10583 10578 10576 10578 10582 10588 10595 10602 10606 10610 10613 10615 10618 10619 10622 10626 10628 10631
10589 10591 10589 10592 10596 10595 10595 10595 10593 10591 10590 10590 10592 10594 10594 10596 10596 10596 10596 10596 10595 10595 10595 10594 10591 10585 10581 10579 10582 10587 10593 10598 10603 10607 10611 10615 10618 10621 10624 10627 10631 10635 10637
10585 10585 10589 10591 10591 10591 10591 10589 10587 10586 10586 10588 10591 10592 10594 10596 10596 10596 10596 10596 10596 10597 10599 10598 10597 10594 10591 10589 10591 10595 10599 10603 10607 10610 10614 10619 10624 10627 10631 10633 10635 10638 10641
10580 10582 10585 10588 10588 10588 10587 10585 10584 10584 10586 10588 10590 10593 10595 10596 10596 10596 10597 10598 10600 10602 10603 10603 10603 10603 10603 10602 10603 10606 10608 10611 10614 10617 10621 10625 10628 10630 10633 10636 10638 10640 10642
10576 10579 10582 10585 10585 10585 10586 10585 10584 10585 10586 10588 10591 10594 10596 10597 10599 10599 10601 10603 10605 10607 10608 10609 10609 10610 10611 10612 10614 10616 10619 10621 10623 10625 10628 10631 10633 10636 10637 10639 10640 10641 10642
10572 10576 10579 10580 10580 10582 10583 10584 10585 10586 10587 10590 10593 10596 10597 10600 10602 10603 10605 10607 10609 10612 10614 10615 10616 10618 10619 10620 10622 10624 10626 10628 10630 10632 10634 10636 10637 10637 10638 10638 10638 10639 10640
10571 10572 10575 10577 10577 10579 10579 10582 10585 10587 10589 10591 10595 10597 10599 10602 10604 10606 10608 10610 10613 10615 10617 10618 10621 10621 10623 10623 10625 10627 10629 10631 10632 10634 10635 10636 10637 10637 10637 10637 10637 10637 10637
10569 10571 10574 10575 10576 10575 10576 10580 10583 10586 10589 10591 10595 10598 10600 10603 10606 10608 10610 10612 10615 10616 10618 10619 10621 10623 10625 10626 10627 10628 10631 10632 10633 10633 10634 10634 10634 10633 10632 10632 10633 10633 10633
10569 10570 10571 10573 10574 10574 10575 10577 10580 10583 10587 10591 10594 10597 10600 10603 10606 10608 10610 10613 10616 10618 10619 10620 10622 10624 10625 10627 10628 10629 10630 10631 10630 10630 10630 10630 10629 10628 10628 10628 10628 10628 10628
10568 10569 10571 10573 10574 10574 10574 10575 10577 10580 10583 10588 10592 10595 10598 10602 10606 10609 10611 10612 10614 10616 10618 10620 10622 10623 10624 10625 10626 10627 10627 10627 10627 10627 10626 10625 10624 10622 10622 10623 10623 10622 10621
10566 10568 10571 10573 10574 10575 10575 10575 10575 10577 10579 10583 10587 10592 10596 10599 10602 10604 10607 10610 10612 10614 10615 10616 10618 10620 10621 10622 10622 10622 10622 10622 10622 10621 10620 10620 10619 10617 10617 10616 10616 10615 10614
10563 10566 10569 10571 10573 10574 10575 10574 10572 10572 10575 10579 10583 10587 10591 10594 10597 10601 10604 10607 10609 10611 10612 10613 10614 10615 10616 10616 10616 10616 10616 10616 10615 10614 10613 10612 10611 10610 10609 10608 10607 10606 10605
10561 10563 10567 10569 10571 10571 10572 10572 10572 10572 10573 10577 10582 10585 10587 10591 10594 10598 10599 10602 10602 10604 10605 10606 10607 10608 10609 10609 10609 10609 10609 10608 10607 10606 10605 10604 10603 10602 10602 10600 10599 10596 10594
10561 10563 10566 10566 10567 10569 10571 10572 10572 10573 10574 10576 10579 10581 10583 10585 10588 10591 10593 10594 10597 10598 10600 10601 10602 10603 10603 10602 10601 10600 10599 10599 10599 10598 10597 10596 10594 10593 10591 10590 10588 10586 10584
10557 10560 10563 10565 10564 10568 10570 10572 10572 10573 10575 10576 10577 10579 10581 10583 10586 10589 10590 10592 10593 10594 10594 10595 10595 10596 10595 10595 10594 10593 10593 10592 10590 10589 10588 10587 10585 10583 10582 10580 10579 10577 10576
10556 10558 10560 10561 10563 10567 10568 10571 10572 10572 10573 10575 10576 10578 10579 10580 10581 10582 10584 10585 10585 10586 10585 10586 10586 10587 10586 10586 10585 10584 10583 10583 10581 10580 10578 10577 10576 10574 10573 10572 10571 10570 10569